Time,TemperatureF,DewpointF,PressureIn,WindDirection,WindDirectionDegrees,WindSpeedMPH,WindSpeedGustMPH,Humidity,HourlyPrecipIn,Conditions,Clouds,dailyrainin,SoftwareType,DateUTC
2013-06-12 00:01:00,64.9,59.6,0.00,SSE,158,0.0,0.0,83,0.00,,,0.00,WUHU216HW,2013-06-12 04:01:00,
2013-06-12 00:02:00,64.9,59.6,0.00,SSE,158,0.0,0.0,83,0.00,,,0.00,WUHU216HW,2013-06-12 04:02:00,
2013-06-12 00:07:00,64.7,59.4,0.00,SSE,158,0.0,0.0,83,0.00,,,0.00,WUHU216HW,2013-06-12 04:07:00,
2013-06-12 00:12:00,64.7,59.4,0.00,SSE,158,0.0,0.0,83,0.00,,,0.00,WUHU216HW,2013-06-12 04:12:00,
2013-06-12 00:17:00,64.5,59.6,0.00,SSE,158,0.0,0.0,84,0.00,,,0.00,WUHU216HW,2013-06-12 04:17:00,
2013-06-12 00:22:00,64.5,59.6,0.00,SSE,158,0.0,0.0,84,0.00,,,0.00,WUHU216HW,2013-06-12 04:22:00,
2013-06-12 00:27:00,64.5,59.6,0.00,SSE,158,0.0,0.0,84,0.00,,,0.00,WUHU216HW,2013-06-12 04:27:00,
2013-06-12 00:32:00,64.4,59.4,0.00,SSE,158,0.0,0.0,84,0.00,,,0.00,WUHU216HW,2013-06-12 04:32:00,
2013-06-12 00:37:00,64.2,59.2,0.00,SSE,158,0.0,0.0,84,0.00,,,0.00,WUHU216HW,2013-06-12 04:37:00,
2013-06-12 00:42:00,64.0,59.1,0.00,SSE,158,0.0,0.0,84,0.00,,,0.00,WUHU216HW,2013-06-12 04:42:00,
2013-06-12 00:47:00,64.0,59.4,0.00,SSE,158,0.0,0.0,85,0.00,,,0.00,WUHU216HW,2013-06-12 04:47:00,
2013-06-12 00:52:00,64.0,59.4,0.00,SSE,158,0.0,0.0,85,0.00,,,0.00,WUHU216HW,2013-06-12 04:52:00,
2013-06-12 00:57:00,64.0,59.4,0.00,SSE,158,0.0,0.0,85,0.00,,,0.00,WUHU216HW,2013-06-12 04:57:00,
2013-06-12 01:02:00,64.0,59.4,0.00,SSE,158,0.0,0.0,85,0.00,,,0.00,WUHU216HW,2013-06-12 05:02:00,
2013-06-12 01:07:00,64.0,59.4,0.00,SSE,158,0.0,0.0,85,0.00,,,0.00,WUHU216HW,2013-06-12 05:07:00,
2013-06-12 01:12:00,64.0,59.4,0.00,SSE,158,0.0,0.0,85,0.00,,,0.00,WUHU216HW,2013-06-12 05:12:00,
2013-06-12 01:17:00,64.0,59.4,0.00,SSE,158,0.0,0.0,85,0.00,,,0.00,WUHU216HW,2013-06-12 05:17:00,
2013-06-12 01:22:00,64.0,59.4,0.00,SSE,158,0.0,0.0,85,0.00,,,0.00,WUHU216HW,2013-06-12 05:22:00,
2013-06-12 01:27:00,64.0,59.4,0.00,SSE,158,0.0,0.0,85,0.00,,,0.00,WUHU216HW,2013-06-12 05:27:00,
2013-06-12 01:32:00,64.0,59.4,0.00,SSE,158,0.0,0.0,85,0.00,,,0.00,WUHU216HW,2013-06-12 05:32:00,
2013-06-12 01:37:00,64.0,59.4,0.00,SSE,158,0.0,0.0,85,0.00,,,0.00,WUHU216HW,2013-06-12 05:37:00,
2013-06-12 01:42:00,64.0,59.4,0.00,SSE,158,0.0,0.0,85,0.00,,,0.00,WUHU216HW,2013-06-12 05:42:00,
2013-06-12 01:47:00,63.6,59.4,0.00,SSE,158,0.0,0.0,86,0.00,,,0.00,WUHU216HW,2013-06-12 05:47:00,
2013-06-12 01:52:00,63.5,59.2,0.00,SSE,158,0.0,0.0,86,0.00,,,0.00,WUHU216HW,2013-06-12 05:52:00,
2013-06-12 01:57:00,63.3,59.0,0.00,SSE,158,0.0,0.0,86,0.00,,,0.00,WUHU216HW,2013-06-12 05:57:00,
2013-06-12 02:02:00,63.3,59.0,0.00,SSE,158,0.0,0.0,86,0.00,,,0.00,WUHU216HW,2013-06-12 06:02:00,
2013-06-12 02:07:00,63.3,59.0,0.00,SSE,158,0.0,0.0,86,0.00,,,0.00,WUHU216HW,2013-06-12 06:07:00,
2013-06-12 02:12:00,63.3,59.0,0.00,SSE,158,0.0,0.0,86,0.00,,,0.00,WUHU216HW,2013-06-12 06:12:00,
2013-06-12 02:17:00,63.3,59.0,0.00,SSE,158,0.0,0.0,86,0.00,,,0.00,WUHU216HW,2013-06-12 06:17:00,
2013-06-12 02:22:00,63.1,58.8,0.00,SSE,158,0.0,0.0,86,0.00,,,0.00,WUHU216HW,2013-06-12 06:22:00,
2013-06-12 02:27:00,63.1,58.8,0.00,North,0,0.0,0.0,86,0.00,,,0.00,WUHU216HW,2013-06-12 06:27:00,
2013-06-12 02:32:00,63.1,58.8,0.00,SSE,158,0.0,0.0,86,0.00,,,0.00,WUHU216HW,2013-06-12 06:32:00,
2013-06-12 02:37:00,63.1,58.8,0.00,SSE,158,0.0,0.0,86,0.00,,,0.00,WUHU216HW,2013-06-12 06:37:00,
2013-06-12 02:43:00,63.1,58.8,0.00,SSE,158,0.0,0.0,86,0.00,,,0.00,WUHU216HW,2013-06-12 06:43:00,
2013-06-12 02:48:00,63.1,58.8,0.00,SSE,158,0.0,0.0,86,0.00,,,0.00,WUHU216HW,2013-06-12 06:48:00,
2013-06-12 02:53:00,62.9,58.7,0.00,SSE,158,0.0,0.0,86,0.00,,,0.00,WUHU216HW,2013-06-12 06:53:00,
2013-06-12 02:58:00,62.9,59.0,0.00,SSE,158,0.0,0.0,87,0.00,,,0.00,WUHU216HW,2013-06-12 06:58:00,
2013-06-12 03:03:00,62.9,59.0,0.00,SSE,158,0.0,0.0,87,0.00,,,0.00,WUHU216HW,2013-06-12 07:03:00,
2013-06-12 03:08:00,62.9,59.0,0.00,SSE,158,0.0,0.0,87,0.00,,,0.00,WUHU216HW,2013-06-12 07:08:00,
2013-06-12 03:13:00,62.9,59.0,0.00,SSE,158,0.0,0.0,87,0.00,,,0.00,WUHU216HW,2013-06-12 07:13:00,
2013-06-12 03:18:00,62.9,59.0,0.00,SSE,158,0.0,0.0,87,0.00,,,0.00,WUHU216HW,2013-06-12 07:18:00,
2013-06-12 03:23:00,62.7,58.8,0.00,SSE,158,0.0,0.0,87,0.00,,,0.00,WUHU216HW,2013-06-12 07:23:00,
2013-06-12 03:28:00,62.7,58.8,0.00,SSE,158,0.0,0.0,87,0.00,,,0.00,WUHU216HW,2013-06-12 07:28:00,
2013-06-12 03:33:00,62.7,58.8,0.00,SSE,158,0.0,0.0,87,0.00,,,0.00,WUHU216HW,2013-06-12 07:33:00,
2013-06-12 03:38:00,62.6,58.6,0.00,SSE,158,0.0,0.0,87,0.00,,,0.00,WUHU216HW,2013-06-12 07:38:00,
2013-06-12 03:43:00,62.4,58.5,0.00,SSE,158,0.0,0.0,87,0.00,,,0.00,WUHU216HW,2013-06-12 07:43:00,
2013-06-12 03:48:00,62.4,58.5,0.00,SSE,158,0.0,0.0,87,0.00,,,0.00,WUHU216HW,2013-06-12 07:48:00,
2013-06-12 03:53:00,62.4,58.5,0.00,SSE,158,0.0,0.0,87,0.00,,,0.00,WUHU216HW,2013-06-12 07:53:00,
2013-06-12 03:58:00,62.4,58.5,0.00,SSE,158,0.0,0.0,87,0.00,,,0.00,WUHU216HW,2013-06-12 07:58:00,
2013-06-12 04:03:00,62.4,58.5,0.00,SSE,158,0.0,0.0,87,0.00,,,0.00,WUHU216HW,2013-06-12 08:03:00,
2013-06-12 04:08:00,62.4,58.5,0.00,SSE,158,0.0,0.0,87,0.00,,,0.00,WUHU216HW,2013-06-12 08:08:00,
2013-06-12 04:13:00,62.4,58.5,0.00,SSE,158,0.0,0.0,87,0.00,,,0.00,WUHU216HW,2013-06-12 08:13:00,
2013-06-12 04:18:00,62.4,58.5,0.00,SSE,158,0.0,0.0,87,0.00,,,0.00,WUHU216HW,2013-06-12 08:18:00,
2013-06-12 04:23:00,62.4,58.5,0.00,SSE,158,0.0,0.0,87,0.00,,,0.00,WUHU216HW,2013-06-12 08:23:00,
2013-06-12 04:28:00,62.4,58.5,0.00,SSE,158,0.0,0.0,87,0.00,,,0.00,WUHU216HW,2013-06-12 08:28:00,
2013-06-12 04:33:00,62.4,58.5,0.00,SSE,158,0.0,0.0,87,0.00,,,0.00,WUHU216HW,2013-06-12 08:33:00,
2013-06-12 04:38:00,62.4,58.5,0.00,SSE,158,0.0,0.0,87,0.00,,,0.00,WUHU216HW,2013-06-12 08:38:00,
2013-06-12 04:43:00,62.4,58.3,0.00,SSE,158,0.0,0.0,87,0.00,,,0.00,WUHU216HW,2013-06-12 08:43:00,
2013-06-12 04:48:00,62.4,58.3,0.00,SSE,158,0.0,0.0,87,0.00,,,0.00,WUHU216HW,2013-06-12 08:48:00,
2013-06-12 04:53:00,62.2,58.6,0.00,SSE,158,0.0,0.0,88,0.00,,,0.00,WUHU216HW,2013-06-12 08:53:00,
2013-06-12 04:58:00,62.2,58.6,0.00,SSE,158,0.0,0.0,88,0.00,,,0.00,WUHU216HW,2013-06-12 08:58:00,
2013-06-12 05:03:00,62.2,58.6,0.00,SSE,158,0.0,0.0,88,0.00,,,0.00,WUHU216HW,2013-06-12 09:03:00,
2013-06-12 05:08:00,62.2,58.6,0.00,SSE,158,0.0,0.0,88,0.00,,,0.00,WUHU216HW,2013-06-12 09:08:00,
2013-06-12 05:13:00,62.2,58.6,0.00,SSE,158,0.0,0.0,88,0.00,,,0.00,WUHU216HW,2013-06-12 09:13:00,
2013-06-12 05:18:00,62.2,58.6,0.00,SSE,158,0.0,0.0,88,0.00,,,0.00,WUHU216HW,2013-06-12 09:18:00,
2013-06-12 05:23:00,62.2,58.6,0.00,SSE,158,0.0,0.0,88,0.00,,,0.00,WUHU216HW,2013-06-12 09:23:00,
2013-06-12 05:28:00,62.2,58.6,0.00,SSE,158,0.0,0.0,88,0.00,,,0.00,WUHU216HW,2013-06-12 09:28:00,
2013-06-12 05:33:00,62.2,58.6,0.00,SSE,158,0.0,0.0,88,0.00,,,0.00,WUHU216HW,2013-06-12 09:33:00,
2013-06-12 05:38:00,62.2,58.6,0.00,SSE,158,0.0,0.0,88,0.00,,,0.00,WUHU216HW,2013-06-12 09:38:00,
2013-06-12 05:43:00,62.2,58.6,0.00,SSE,158,0.0,0.0,88,0.00,,,0.00,WUHU216HW,2013-06-12 09:43:00,
2013-06-12 05:48:00,62.2,58.6,0.00,SSE,158,0.0,0.0,88,0.00,,,0.00,WUHU216HW,2013-06-12 09:48:00,
2013-06-12 05:53:00,62.0,58.4,0.00,SSE,158,0.0,0.0,88,0.00,,,0.00,WUHU216HW,2013-06-12 09:53:00,
2013-06-12 05:58:00,62.2,58.6,0.00,SSE,158,0.0,0.0,88,0.00,,,0.00,WUHU216HW,2013-06-12 09:58:00,
2013-06-12 06:03:00,62.2,58.6,0.00,SSE,158,0.0,0.0,88,0.00,,,0.00,WUHU216HW,2013-06-12 10:03:00,
2013-06-12 06:08:00,62.2,58.4,0.00,SSE,158,0.0,0.0,88,0.00,,,0.00,WUHU216HW,2013-06-12 10:08:00,
2013-06-12 06:13:00,62.0,58.4,0.00,SSE,158,0.0,0.0,88,0.00,,,0.00,WUHU216HW,2013-06-12 10:13:00,
2013-06-12 06:18:00,62.0,58.4,0.00,SSE,158,0.0,0.0,88,0.00,,,0.00,WUHU216HW,2013-06-12 10:18:00,
2013-06-12 06:23:00,62.0,58.4,0.00,SSE,158,0.0,0.0,88,0.00,,,0.00,WUHU216HW,2013-06-12 10:23:00,
2013-06-12 06:28:00,61.8,58.3,0.00,SSE,158,0.0,0.0,88,0.00,,,0.00,WUHU216HW,2013-06-12 10:28:00,
2013-06-12 06:33:00,62.0,58.4,0.00,SSE,158,0.0,0.0,88,0.00,,,0.00,WUHU216HW,2013-06-12 10:33:00,
2013-06-12 06:38:00,62.0,58.4,0.00,SSE,158,0.0,0.0,88,0.00,,,0.00,WUHU216HW,2013-06-12 10:38:00,
2013-06-12 06:43:00,62.0,58.4,0.00,SSE,158,0.0,0.0,88,0.00,,,0.00,WUHU216HW,2013-06-12 10:43:00,
2013-06-12 06:48:00,62.0,58.4,0.00,SSE,158,0.0,0.0,88,0.00,,,0.00,WUHU216HW,2013-06-12 10:48:00,
2013-06-12 06:53:00,62.0,58.4,0.00,SSE,158,0.0,0.0,88,0.00,,,0.00,WUHU216HW,2013-06-12 10:53:00,
2013-06-12 06:58:00,62.2,58.6,0.00,SSE,158,0.0,0.0,88,0.00,,,0.00,WUHU216HW,2013-06-12 10:58:00,
2013-06-12 07:03:00,62.2,58.6,0.00,SSE,158,0.0,0.0,88,0.00,,,0.00,WUHU216HW,2013-06-12 11:03:00,
2013-06-12 07:08:00,62.2,58.6,0.00,SSE,158,0.0,0.0,88,0.00,,,0.00,WUHU216HW,2013-06-12 11:08:00,
2013-06-12 07:13:00,62.2,58.6,0.00,SSE,158,0.0,0.0,88,0.00,,,0.00,WUHU216HW,2013-06-12 11:13:00,
2013-06-12 07:18:00,62.2,58.6,0.00,SSE,158,0.0,0.0,88,0.00,,,0.00,WUHU216HW,2013-06-12 11:18:00,
2013-06-12 07:23:00,62.4,58.8,0.00,SSE,158,0.0,0.0,88,0.00,,,0.00,WUHU216HW,2013-06-12 11:23:00,
2013-06-12 07:28:00,62.4,58.8,0.00,SSE,158,0.0,0.0,88,0.00,,,0.00,WUHU216HW,2013-06-12 11:28:00,
2013-06-12 07:33:00,62.4,59.1,0.00,SSE,158,0.0,0.0,89,0.00,,,0.00,WUHU216HW,2013-06-12 11:33:00,
2013-06-12 07:38:00,62.6,59.3,0.00,SSE,158,0.0,0.0,89,0.00,,,0.00,WUHU216HW,2013-06-12 11:38:00,
2013-06-12 07:43:00,62.7,59.5,0.00,SSE,158,0.0,0.0,89,0.00,,,0.00,WUHU216HW,2013-06-12 11:43:00,
2013-06-12 07:48:00,62.7,59.5,0.00,SSE,158,0.0,0.0,89,0.00,,,0.00,WUHU216HW,2013-06-12 11:48:00,
2013-06-12 07:53:00,62.9,59.7,0.00,SSE,158,0.0,0.0,89,0.00,,,0.00,WUHU216HW,2013-06-12 11:53:00,
2013-06-12 07:58:00,62.9,59.7,0.00,SSE,158,0.0,0.0,89,0.00,,,0.00,WUHU216HW,2013-06-12 11:58:00,
2013-06-12 08:03:00,63.1,59.9,0.00,SSE,158,0.0,0.0,89,0.00,,,0.00,WUHU216HW,2013-06-12 12:03:00,
2013-06-12 08:08:00,63.1,59.9,0.00,SSE,158,0.0,0.0,89,0.00,,,0.00,WUHU216HW,2013-06-12 12:08:00,
2013-06-12 08:13:00,63.1,59.9,0.00,SSE,158,0.0,0.0,89,0.00,,,0.00,WUHU216HW,2013-06-12 12:13:00,
2013-06-12 08:18:00,63.3,60.0,0.00,SSE,158,0.0,0.0,89,0.00,,,0.00,WUHU216HW,2013-06-12 12:18:00,
2013-06-12 08:23:00,63.5,60.2,0.00,SSE,158,0.0,0.0,89,0.00,,,0.00,WUHU216HW,2013-06-12 12:23:00,
2013-06-12 08:28:00,63.6,60.4,0.00,SSE,158,0.0,0.0,89,0.00,,,0.00,WUHU216HW,2013-06-12 12:28:00,
2013-06-12 08:33:00,63.6,60.4,0.00,SSE,158,0.0,0.0,89,0.00,,,0.00,WUHU216HW,2013-06-12 12:33:00,
2013-06-12 08:38:00,64.2,60.9,0.00,SSE,158,0.0,0.0,89,0.00,,,0.00,WUHU216HW,2013-06-12 12:38:00,
2013-06-12 08:43:00,64.5,61.6,0.00,SSE,158,0.0,0.0,90,0.00,,,0.00,WUHU216HW,2013-06-12 12:43:00,
2013-06-12 08:48:00,64.7,61.8,0.00,SSE,158,0.0,0.0,90,0.00,,,0.00,WUHU216HW,2013-06-12 12:48:00,
2013-06-12 08:53:00,65.1,62.1,0.00,SSE,158,0.0,0.0,90,0.00,,,0.00,WUHU216HW,2013-06-12 12:53:00,
2013-06-12 08:58:00,65.4,62.4,0.00,SSE,158,0.0,0.0,90,0.00,,,0.00,WUHU216HW,2013-06-12 12:58:00,
2013-06-12 09:03:00,65.8,62.8,0.00,SSE,158,0.0,0.0,90,0.00,,,0.00,WUHU216HW,2013-06-12 13:03:00,
2013-06-12 09:08:00,66.0,62.6,0.00,SSE,158,0.0,0.0,89,0.00,,,0.00,WUHU216HW,2013-06-12 13:08:00,
2013-06-12 09:13:00,66.3,62.8,0.00,SSE,158,0.0,0.0,89,0.00,,,0.00,WUHU216HW,2013-06-12 13:13:00,
2013-06-12 09:18:00,66.5,63.1,0.00,SSE,158,0.0,0.0,89,0.00,,,0.00,WUHU216HW,2013-06-12 13:18:00,
2013-06-12 09:23:00,66.7,63.3,0.00,SSE,158,0.0,0.0,89,0.00,,,0.00,WUHU216HW,2013-06-12 13:23:00,
2013-06-12 09:28:00,66.9,63.5,0.00,SSE,158,0.0,0.0,89,0.00,,,0.00,WUHU216HW,2013-06-12 13:28:00,
2013-06-12 09:33:00,67.1,63.7,0.00,SSE,158,0.0,0.0,89,0.00,,,0.00,WUHU216HW,2013-06-12 13:33:00,
2013-06-12 09:38:00,67.2,63.8,0.00,SSE,158,0.0,0.0,89,0.00,,,0.00,WUHU216HW,2013-06-12 13:38:00,
2013-06-12 09:43:00,67.6,64.2,0.00,SSE,158,0.0,0.0,89,0.00,,,0.00,WUHU216HW,2013-06-12 13:43:00,
2013-06-12 09:48:00,68.1,64.7,0.00,SSE,158,0.0,0.0,89,0.00,,,0.00,WUHU216HW,2013-06-12 13:48:00,
2013-06-12 09:53:00,68.7,65.3,0.00,SSE,158,0.0,0.0,89,0.00,,,0.00,WUHU216HW,2013-06-12 13:53:00,
2013-06-12 09:58:00,69.2,65.6,0.00,SSE,158,0.0,0.0,89,0.00,,,0.00,WUHU216HW,2013-06-12 13:58:00,
2013-06-12 10:03:00,69.8,66.3,0.00,SSE,158,0.0,0.0,89,0.00,,,0.00,WUHU216HW,2013-06-12 14:03:00,
2013-06-12 10:08:00,70.5,67.1,0.00,SSE,158,0.0,0.0,89,0.00,,,0.00,WUHU216HW,2013-06-12 14:08:00,
2013-06-12 10:13:00,71.2,67.8,0.00,SSE,158,0.0,0.0,89,0.00,,,0.00,WUHU216HW,2013-06-12 14:13:00,
2013-06-12 10:18:00,72.1,68.7,0.00,SSE,158,0.0,0.0,89,0.00,,,0.00,WUHU216HW,2013-06-12 14:18:00,
2013-06-12 10:23:00,73.0,69.2,0.00,SSE,158,0.0,0.0,88,0.00,,,0.00,WUHU216HW,2013-06-12 14:23:00,
2013-06-12 10:28:00,73.9,70.1,0.00,SSE,158,0.0,0.0,88,0.00,,,0.00,WUHU216HW,2013-06-12 14:28:00,
2013-06-12 10:33:00,74.8,70.7,0.00,SSE,158,0.0,0.0,87,0.00,,,0.00,WUHU216HW,2013-06-12 14:33:00,
2013-06-12 10:38:00,75.7,71.4,0.00,SE,135,0.0,0.0,87,0.00,,,0.00,WUHU216HW,2013-06-12 14:38:00,
2013-06-12 10:43:00,76.6,72.1,0.00,SE,135,0.0,0.0,86,0.00,,,0.00,WUHU216HW,2013-06-12 14:43:00,
2013-06-12 10:48:00,77.3,72.5,0.00,SE,135,0.0,0.0,85,0.00,,,0.00,WUHU216HW,2013-06-12 14:48:00,
2013-06-12 10:53:00,77.9,72.6,0.00,SE,135,0.0,0.0,84,0.00,,,0.00,WUHU216HW,2013-06-12 14:53:00,
2013-06-12 10:58:00,78.4,72.8,0.00,SSE,158,0.0,0.0,83,0.00,,,0.00,WUHU216HW,2013-06-12 14:58:00,
2013-06-12 11:03:00,78.9,73.3,0.00,SSE,158,0.0,0.0,83,0.00,,,0.00,WUHU216HW,2013-06-12 15:03:00,
2013-06-12 11:08:00,79.5,73.5,0.00,SSE,158,0.0,0.0,82,0.00,,,0.00,WUHU216HW,2013-06-12 15:08:00,
2013-06-12 11:13:00,79.8,73.5,0.00,SE,135,0.0,0.0,81,0.00,,,0.00,WUHU216HW,2013-06-12 15:13:00,
2013-06-12 11:18:00,80.4,74.1,0.00,SE,135,0.0,0.0,81,0.00,,,0.00,WUHU216HW,2013-06-12 15:18:00,
2013-06-12 11:23:00,80.9,74.3,0.00,SE,135,0.0,0.0,80,0.00,,,0.00,WUHU216HW,2013-06-12 15:23:00,
2013-06-12 11:28:00,81.3,74.2,0.00,NW,315,0.0,0.0,79,0.00,,,0.00,WUHU216HW,2013-06-12 15:28:00,
2013-06-12 11:33:00,81.6,74.1,0.00,NW,315,0.0,0.0,78,0.00,,,0.00,WUHU216HW,2013-06-12 15:33:00,
2013-06-12 11:38:00,82.0,74.1,0.00,NW,315,0.0,0.0,77,0.00,,,0.00,WUHU216HW,2013-06-12 15:38:00,
2013-06-12 11:43:00,82.2,73.9,0.00,NNW,338,0.0,0.0,76,0.00,,,0.00,WUHU216HW,2013-06-12 15:43:00,
2013-06-12 11:48:00,82.5,73.8,0.00,NW,315,0.0,0.0,75,0.00,,,0.00,WUHU216HW,2013-06-12 15:48:00,
2013-06-12 11:53:00,82.5,73.8,0.00,WNW,293,0.0,0.0,75,0.00,,,0.00,WUHU216HW,2013-06-12 15:53:00,
2013-06-12 11:58:00,82.9,74.1,0.00,WNW,293,0.0,0.0,75,0.00,,,0.00,WUHU216HW,2013-06-12 15:58:00,
2013-06-12 12:03:00,83.3,74.5,0.00,ENE,68,0.0,0.0,75,0.00,,,0.00,WUHU216HW,2013-06-12 16:03:00,
2013-06-12 12:08:00,83.4,73.8,0.00,NW,315,0.0,0.0,73,0.00,,,0.00,WUHU216HW,2013-06-12 16:08:00,
2013-06-12 12:13:00,83.8,73.8,0.00,SSW,203,0.0,0.0,72,0.00,,,0.00,WUHU216HW,2013-06-12 16:13:00,
2013-06-12 12:18:00,84.0,74.0,0.00,SSE,158,0.0,0.0,72,0.00,,,0.00,WUHU216HW,2013-06-12 16:18:00,
2013-06-12 12:23:00,84.0,74.0,0.00,SSW,203,0.0,0.0,72,0.00,,,0.00,WUHU216HW,2013-06-12 16:23:00,
2013-06-12 12:28:00,84.3,73.9,0.00,SSE,158,0.0,0.0,71,0.00,,,0.00,WUHU216HW,2013-06-12 16:28:00,
2013-06-12 12:33:00,84.3,73.9,0.00,SE,135,0.0,0.0,71,0.00,,,0.00,WUHU216HW,2013-06-12 16:33:00,
2013-06-12 12:38:00,84.5,74.5,0.00,SE,135,0.0,0.0,72,0.00,,,0.00,WUHU216HW,2013-06-12 16:38:00,
2013-06-12 12:43:00,84.7,74.3,0.00,West,270,0.0,0.0,71,0.00,,,0.00,WUHU216HW,2013-06-12 16:43:00,
2013-06-12 12:48:00,84.9,74.5,0.00,WNW,293,0.0,0.0,71,0.00,,,0.00,WUHU216HW,2013-06-12 16:48:00,
2013-06-12 12:53:00,85.1,73.8,0.00,ESE,113,0.0,0.0,69,0.00,,,0.00,WUHU216HW,2013-06-12 16:53:00,
2013-06-12 12:58:00,85.2,73.5,0.00,NW,315,0.0,0.0,68,0.00,,,0.00,WUHU216HW,2013-06-12 16:58:00,
2013-06-12 13:03:00,85.4,73.2,0.00,SSE,158,0.0,0.0,67,0.00,,,0.00,WUHU216HW,2013-06-12 17:03:00,
2013-06-12 13:08:00,85.6,73.9,0.00,WNW,293,0.0,0.0,68,0.00,,,0.00,WUHU216HW,2013-06-12 17:08:00,
2013-06-12 13:13:00,85.8,73.6,0.00,South,180,0.0,0.0,67,0.00,,,0.00,WUHU216HW,2013-06-12 17:13:00,
2013-06-12 13:18:00,86.1,73.9,0.00,NNW,338,0.0,0.0,67,0.00,,,0.00,WUHU216HW,2013-06-12 17:18:00,
2013-06-12 13:23:00,86.5,74.1,0.00,WNW,293,0.0,0.0,67,0.00,,,0.00,WUHU216HW,2013-06-12 17:23:00,
2013-06-12 13:28:00,86.5,73.8,0.00,NW,315,0.0,0.0,66,0.00,,,0.00,WUHU216HW,2013-06-12 17:28:00,
2013-06-12 13:33:00,86.7,73.5,0.00,West,270,0.0,0.0,65,0.00,,,0.00,WUHU216HW,2013-06-12 17:33:00,
2013-06-12 13:38:00,86.7,73.5,0.00,WNW,293,0.0,0.0,65,0.00,,,0.00,WUHU216HW,2013-06-12 17:38:00,
2013-06-12 13:43:00,86.9,73.7,0.00,SSE,158,0.0,0.0,65,0.00,,,0.00,WUHU216HW,2013-06-12 17:43:00,
2013-06-12 13:48:00,87.0,72.9,0.00,West,270,0.0,0.0,63,0.00,,,0.00,WUHU216HW,2013-06-12 17:48:00,
2013-06-12 13:53:00,87.0,72.9,0.00,NW,315,0.0,0.0,63,0.00,,,0.00,WUHU216HW,2013-06-12 17:53:00,
2013-06-12 13:58:00,87.0,72.5,0.00,NW,315,0.0,0.0,62,0.00,,,0.00,WUHU216HW,2013-06-12 17:58:00,
2013-06-12 14:03:00,87.0,72.5,0.00,SE,135,0.0,0.0,62,0.00,,,0.00,WUHU216HW,2013-06-12 18:03:00,
2013-06-12 14:08:00,87.2,73.1,0.00,South,180,0.0,0.0,63,0.00,,,0.00,WUHU216HW,2013-06-12 18:08:00,
2013-06-12 14:13:00,87.4,72.4,0.00,South,180,0.0,0.0,61,0.00,,,0.00,WUHU216HW,2013-06-12 18:13:00,
2013-06-12 14:18:00,87.6,73.0,0.00,West,270,0.0,0.0,62,0.00,,,0.00,WUHU216HW,2013-06-12 18:18:00,
2013-06-12 14:23:00,87.6,73.0,0.00,West,270,0.0,0.0,62,0.00,,,0.00,WUHU216HW,2013-06-12 18:23:00,
2013-06-12 14:28:00,87.6,72.5,0.00,South,180,0.0,0.0,62,0.00,,,0.00,WUHU216HW,2013-06-12 18:28:00,
2013-06-12 14:33:00,87.2,72.2,0.00,NW,315,0.0,0.0,61,0.00,,,0.00,WUHU216HW,2013-06-12 18:33:00,
2013-06-12 14:38:00,86.5,71.9,0.00,SSE,158,0.0,0.0,62,0.00,,,0.00,WUHU216HW,2013-06-12 18:38:00,
2013-06-12 14:43:00,86.5,71.9,0.00,NW,315,0.0,0.0,62,0.00,,,0.00,WUHU216HW,2013-06-12 18:43:00,
2013-06-12 14:48:00,86.5,71.9,0.00,ENE,68,0.0,0.0,62,0.00,,,0.00,WUHU216HW,2013-06-12 18:48:00,
2013-06-12 14:53:00,86.5,72.8,0.00,ENE,68,0.0,0.0,64,0.00,,,0.00,WUHU216HW,2013-06-12 18:53:00,
2013-06-12 14:58:00,86.7,73.5,0.00,SSE,158,0.0,0.0,65,0.00,,,0.00,WUHU216HW,2013-06-12 18:58:00,
2013-06-12 15:03:00,86.7,73.5,0.00,SE,135,0.0,0.0,65,0.00,,,0.00,WUHU216HW,2013-06-12 19:03:00,
2013-06-12 15:08:00,86.7,73.9,0.00,SSW,203,0.0,0.0,66,0.00,,,0.00,WUHU216HW,2013-06-12 19:08:00,
2013-06-12 15:13:00,86.7,73.3,0.00,SE,135,0.0,0.0,65,0.00,,,0.00,WUHU216HW,2013-06-12 19:13:00,
2013-06-12 15:18:00,86.5,73.8,0.00,SSW,203,0.0,0.0,66,0.00,,,0.00,WUHU216HW,2013-06-12 19:18:00,
2013-06-12 15:23:00,86.3,73.2,0.00,SE,135,0.0,0.0,65,0.00,,,0.00,WUHU216HW,2013-06-12 19:23:00,
2013-06-12 15:28:00,86.3,73.6,0.00,South,180,0.0,0.0,66,0.00,,,0.00,WUHU216HW,2013-06-12 19:28:00,
2013-06-12 15:33:00,86.5,73.3,0.00,SE,135,0.0,0.0,65,0.00,,,0.00,WUHU216HW,2013-06-12 19:33:00,
2013-06-12 15:38:00,86.5,73.3,0.00,ESE,113,0.0,0.0,65,0.00,,,0.00,WUHU216HW,2013-06-12 19:38:00,
2013-06-12 15:43:00,86.5,72.8,0.00,SSE,158,0.0,0.0,64,0.00,,,0.00,WUHU216HW,2013-06-12 19:43:00,
2013-06-12 15:48:00,86.3,73.2,0.00,SSE,158,0.0,0.0,66,0.00,,,0.00,WUHU216HW,2013-06-12 19:48:00,
2013-06-12 15:53:00,86.3,72.7,0.00,NW,315,0.0,0.0,64,0.00,,,0.00,WUHU216HW,2013-06-12 19:53:00,
2013-06-12 15:58:00,86.3,72.7,0.00,SSE,158,0.0,0.0,64,0.00,,,0.00,WUHU216HW,2013-06-12 19:58:00,
2013-06-12 16:03:00,86.1,72.0,0.00,WNW,293,0.0,0.0,63,0.00,,,0.00,WUHU216HW,2013-06-12 20:03:00,
2013-06-12 16:08:00,86.1,72.5,0.00,ESE,113,0.0,0.0,64,0.00,,,0.00,WUHU216HW,2013-06-12 20:08:00,
2013-06-12 16:13:00,85.8,71.7,0.00,NNW,338,0.0,0.0,63,0.00,,,0.00,WUHU216HW,2013-06-12 20:13:00,
2013-06-12 16:18:00,85.8,71.7,0.00,SE,135,0.0,0.0,63,0.00,,,0.00,WUHU216HW,2013-06-12 20:18:00,
2013-06-12 16:23:00,85.8,71.7,0.00,SSE,158,0.0,0.0,63,0.00,,,0.00,WUHU216HW,2013-06-12 20:23:00,
2013-06-12 16:28:00,85.6,72.0,0.00,SE,135,0.0,0.0,64,0.00,,,0.00,WUHU216HW,2013-06-12 20:28:00,
2013-06-12 16:33:00,85.6,72.0,0.00,SE,135,0.0,0.0,64,0.00,,,0.00,WUHU216HW,2013-06-12 20:33:00,
2013-06-12 16:38:00,85.6,71.5,0.00,SE,135,0.0,0.0,63,0.00,,,0.00,WUHU216HW,2013-06-12 20:38:00,
2013-06-12 16:43:00,85.6,71.5,0.00,SSE,158,0.0,0.0,63,0.00,,,0.00,WUHU216HW,2013-06-12 20:43:00,
2013-06-12 16:48:00,85.2,71.8,0.00,SSE,158,0.0,0.0,64,0.00,,,0.00,WUHU216HW,2013-06-12 20:48:00,
2013-06-12 16:53:00,85.2,71.7,0.00,WNW,293,0.0,0.0,64,0.00,,,0.00,WUHU216HW,2013-06-12 20:53:00,
2013-06-12 16:58:00,85.2,71.2,0.00,NW,315,0.0,0.0,63,0.00,,,0.00,WUHU216HW,2013-06-12 20:58:00,
2013-06-12 17:03:00,85.1,71.5,0.00,SE,135,0.0,0.0,64,0.00,,,0.00,WUHU216HW,2013-06-12 21:03:00,
2013-06-12 17:08:00,84.9,71.3,0.00,SE,135,0.0,0.0,64,0.00,,,0.00,WUHU216HW,2013-06-12 21:08:00,
2013-06-12 17:13:00,84.7,71.6,0.00,SE,135,0.0,0.0,65,0.00,,,0.00,WUHU216HW,2013-06-12 21:13:00,
2013-06-12 17:18:00,84.7,71.6,0.00,SE,135,0.0,0.0,65,0.00,,,0.00,WUHU216HW,2013-06-12 21:18:00,
2013-06-12 17:23:00,84.7,71.6,0.00,SE,135,0.0,0.0,65,0.00,,,0.00,WUHU216HW,2013-06-12 21:23:00,
2013-06-12 17:28:00,84.7,71.6,0.00,SE,135,0.0,0.0,65,0.00,,,0.00,WUHU216HW,2013-06-12 21:28:00,
2013-06-12 17:33:00,84.5,71.6,0.00,SE,135,0.0,0.0,65,0.00,,,0.00,WUHU216HW,2013-06-12 21:33:00,
2013-06-12 17:38:00,84.5,71.9,0.00,SE,135,0.0,0.0,66,0.00,,,0.00,WUHU216HW,2013-06-12 21:38:00,
2013-06-12 17:43:00,84.7,72.1,0.00,SSE,158,0.0,0.0,66,0.00,,,0.00,WUHU216HW,2013-06-12 21:43:00,
2013-06-12 17:48:00,84.5,71.9,0.00,SE,135,0.0,0.0,66,0.00,,,0.00,WUHU216HW,2013-06-12 21:48:00,
2013-06-12 17:53:00,84.5,71.4,0.00,SSE,158,0.0,0.0,65,0.00,,,0.00,WUHU216HW,2013-06-12 21:53:00,
2013-06-12 17:58:00,84.3,71.7,0.00,SSE,158,0.0,0.0,66,0.00,,,0.00,WUHU216HW,2013-06-12 21:58:00,
2013-06-12 18:03:00,84.0,71.4,0.00,SSE,158,0.0,0.0,66,0.00,,,0.00,WUHU216HW,2013-06-12 22:03:00,
2013-06-12 18:08:00,84.0,71.4,0.00,West,270,0.0,0.0,66,0.00,,,0.00,WUHU216HW,2013-06-12 22:08:00,
2013-06-12 18:13:00,84.0,70.9,0.00,West,270,0.0,0.0,65,0.00,,,0.00,WUHU216HW,2013-06-12 22:13:00,
2013-06-12 18:18:00,84.0,71.4,0.00,West,270,0.0,0.0,66,0.00,,,0.00,WUHU216HW,2013-06-12 22:18:00,
2013-06-12 18:23:00,83.8,71.2,0.00,WSW,248,0.0,0.0,66,0.00,,,0.00,WUHU216HW,2013-06-12 22:23:00,
2013-06-12 18:28:00,83.4,71.5,0.00,SW,225,0.0,0.0,67,0.00,,,0.00,WUHU216HW,2013-06-12 22:28:00,
2013-06-12 18:33:00,83.4,71.3,0.00,SW,225,0.0,0.0,67,0.00,,,0.00,WUHU216HW,2013-06-12 22:33:00,
2013-06-12 18:38:00,83.1,71.4,0.00,SW,225,0.0,0.0,68,0.00,,,0.00,WUHU216HW,2013-06-12 22:38:00,
2013-06-12 18:43:00,83.1,71.4,0.00,SW,225,0.0,0.0,68,0.00,,,0.00,WUHU216HW,2013-06-12 22:43:00,
2013-06-12 18:48:00,82.9,71.6,0.00,SW,225,0.0,0.0,69,0.00,,,0.00,WUHU216HW,2013-06-12 22:48:00,
2013-06-12 18:53:00,82.7,71.5,0.00,SW,225,0.0,0.0,69,0.00,,,0.00,WUHU216HW,2013-06-12 22:53:00,
2013-06-12 18:58:00,82.5,71.7,0.00,SW,225,0.0,0.0,70,0.00,,,0.00,WUHU216HW,2013-06-12 22:58:00,
2013-06-12 19:03:00,82.2,71.4,0.00,SW,225,0.0,0.0,70,0.00,,,0.00,WUHU216HW,2013-06-12 23:03:00,
2013-06-12 19:08:00,82.2,71.4,0.00,SW,225,0.0,0.0,70,0.00,,,0.00,WUHU216HW,2013-06-12 23:08:00,
2013-06-12 19:13:00,82.2,71.4,0.00,SW,225,0.0,0.0,70,0.00,,,0.00,WUHU216HW,2013-06-12 23:13:00,
2013-06-12 19:18:00,82.0,71.2,0.00,SW,225,0.0,0.0,70,0.00,,,0.00,WUHU216HW,2013-06-12 23:18:00,
2013-06-12 19:23:00,81.6,71.3,0.00,SW,225,0.0,0.0,71,0.00,,,0.00,WUHU216HW,2013-06-12 23:23:00,
2013-06-12 19:28:00,81.5,71.1,0.00,SW,225,0.0,0.0,71,0.00,,,0.00,WUHU216HW,2013-06-12 23:28:00,
2013-06-12 19:33:00,81.3,71.4,0.00,SW,225,0.0,0.0,72,0.00,,,0.00,WUHU216HW,2013-06-12 23:33:00,
2013-06-12 19:38:00,81.1,71.2,0.00,SW,225,0.0,0.0,72,0.00,,,0.00,WUHU216HW,2013-06-12 23:38:00,
2013-06-12 19:43:00,80.9,71.4,0.00,SW,225,0.0,0.0,73,0.00,,,0.00,WUHU216HW,2013-06-12 23:43:00,
2013-06-12 19:48:00,80.6,71.1,0.00,SW,225,0.0,0.0,73,0.00,,,0.00,WUHU216HW,2013-06-12 23:48:00,
2013-06-12 19:53:00,80.4,71.3,0.00,SW,225,0.0,0.0,74,0.00,,,0.00,WUHU216HW,2013-06-12 23:53:00,
2013-06-12 19:58:00,80.2,71.2,0.00,SW,225,0.0,0.0,74,0.00,,,0.00,WUHU216HW,2013-06-12 23:58:00,
2013-06-12 20:03:00,80.0,71.0,0.00,SW,225,0.0,0.0,74,0.00,,,0.00,WUHU216HW,2013-06-13 00:03:00,
2013-06-12 20:08:00,79.7,71.0,0.00,SW,225,0.0,0.0,75,0.00,,,0.00,WUHU216HW,2013-06-13 00:08:00,
2013-06-12 20:13:00,79.5,70.8,0.00,SW,225,0.0,0.0,75,0.00,,,0.00,WUHU216HW,2013-06-13 00:13:00,
2013-06-12 20:18:00,79.3,71.0,0.00,SW,225,0.0,0.0,76,0.00,,,0.00,WUHU216HW,2013-06-13 00:18:00,
2013-06-12 20:23:00,78.9,70.7,0.00,SW,225,0.0,0.0,76,0.00,,,0.00,WUHU216HW,2013-06-13 00:23:00,
2013-06-12 20:28:00,78.6,70.3,0.00,SW,225,0.0,0.0,76,0.00,,,0.00,WUHU216HW,2013-06-13 00:28:00,
2013-06-12 20:33:00,78.6,70.3,0.00,SW,225,0.0,0.0,76,0.00,,,0.00,WUHU216HW,2013-06-13 00:33:00,
2013-06-12 20:38:00,78.4,70.5,0.00,SW,225,0.0,0.0,77,0.00,,,0.00,WUHU216HW,2013-06-13 00:38:00,
2013-06-12 20:43:00,78.0,70.2,0.00,SW,225,0.0,0.0,77,0.00,,,0.00,WUHU216HW,2013-06-13 00:43:00,
2013-06-12 20:48:00,77.9,70.0,0.00,SW,225,0.0,0.0,77,0.00,,,0.00,WUHU216HW,2013-06-13 00:48:00,
2013-06-12 20:53:00,77.7,69.8,0.00,SW,225,0.0,0.0,77,0.00,,,0.00,WUHU216HW,2013-06-13 00:53:00,
2013-06-12 20:58:00,77.5,69.7,0.00,SW,225,0.0,0.0,77,0.00,,,0.00,WUHU216HW,2013-06-13 00:58:00,
2013-06-12 21:03:00,77.1,69.3,0.00,SW,225,0.0,0.0,77,0.00,,,0.00,WUHU216HW,2013-06-13 01:03:00,
2013-06-12 21:08:00,76.8,69.4,0.00,SW,225,0.0,0.0,78,0.00,,,0.00,WUHU216HW,2013-06-13 01:08:00,
2013-06-12 21:13:00,76.8,69.4,0.00,SW,225,0.0,0.0,78,0.00,,,0.00,WUHU216HW,2013-06-13 01:13:00,
2013-06-12 21:18:00,76.6,69.2,0.00,SW,225,0.0,0.0,78,0.00,,,0.00,WUHU216HW,2013-06-13 01:18:00,
2013-06-12 21:23:00,76.2,69.2,0.00,SW,225,0.0,0.0,79,0.00,,,0.00,WUHU216HW,2013-06-13 01:23:00,
2013-06-12 21:28:00,76.2,69.2,0.00,SW,225,0.0,0.0,79,0.00,,,0.00,WUHU216HW,2013-06-13 01:28:00,
2013-06-12 21:33:00,75.9,68.9,0.00,SW,225,0.0,0.0,79,0.00,,,0.00,WUHU216HW,2013-06-13 01:33:00,
2013-06-12 21:38:00,75.9,68.9,0.00,SW,225,0.0,0.0,79,0.00,,,0.00,WUHU216HW,2013-06-13 01:38:00,
2013-06-12 21:43:00,75.7,68.8,0.00,SW,225,0.0,0.0,79,0.00,,,0.00,WUHU216HW,2013-06-13 01:43:00,
2013-06-12 21:48:00,75.5,69.0,0.00,SW,225,0.0,0.0,80,0.00,,,0.00,WUHU216HW,2013-06-13 01:48:00,
2013-06-12 21:53:00,75.3,68.8,0.00,SW,225,0.0,0.0,80,0.00,,,0.00,WUHU216HW,2013-06-13 01:53:00,
2013-06-12 21:58:00,75.0,68.5,0.00,SW,225,0.0,0.0,80,0.00,,,0.00,WUHU216HW,2013-06-13 01:58:00,
2013-06-12 22:03:00,75.0,68.8,0.00,SW,225,0.0,0.0,81,0.00,,,0.00,WUHU216HW,2013-06-13 02:03:00,
2013-06-12 22:08:00,74.8,68.7,0.00,SW,225,0.0,0.0,81,0.00,,,0.00,WUHU216HW,2013-06-13 02:08:00,
2013-06-12 22:13:00,74.4,68.3,0.00,SW,225,0.0,0.0,81,0.00,,,0.00,WUHU216HW,2013-06-13 02:13:00,
2013-06-12 22:18:00,74.1,67.9,0.00,SW,225,0.0,0.0,81,0.00,,,0.00,WUHU216HW,2013-06-13 02:18:00,
2013-06-12 22:23:00,73.9,67.8,0.00,SW,225,0.0,0.0,81,0.00,,,0.00,WUHU216HW,2013-06-13 02:23:00,
2013-06-12 22:28:00,73.5,67.7,0.00,SW,225,0.0,0.0,82,0.00,,,0.00,WUHU216HW,2013-06-13 02:28:00,
2013-06-12 22:33:00,73.4,67.7,0.00,SW,225,0.0,0.0,82,0.00,,,0.00,WUHU216HW,2013-06-13 02:33:00,
2013-06-12 22:38:00,73.2,67.4,0.00,SW,225,0.0,0.0,82,0.00,,,0.00,WUHU216HW,2013-06-13 02:38:00,
2013-06-12 22:43:00,73.2,67.4,0.00,SW,225,0.0,0.0,82,0.00,,,0.00,WUHU216HW,2013-06-13 02:43:00,
2013-06-12 22:48:00,73.0,67.2,0.00,SW,225,0.0,0.0,82,0.00,,,0.00,WUHU216HW,2013-06-13 02:48:00,
2013-06-12 22:53:00,72.6,66.8,0.00,SW,225,0.0,0.0,82,0.00,,,0.00,WUHU216HW,2013-06-13 02:53:00,
2013-06-12 22:58:00,72.5,67.0,0.00,SW,225,0.0,0.0,83,0.00,,,0.00,WUHU216HW,2013-06-13 02:58:00,
2013-06-12 23:03:00,72.3,66.8,0.00,SW,225,0.0,0.0,83,0.00,,,0.00,WUHU216HW,2013-06-13 03:03:00,
2013-06-12 23:08:00,72.1,66.6,0.00,SW,225,0.0,0.0,83,0.00,,,0.00,WUHU216HW,2013-06-13 03:08:00,
2013-06-12 23:13:00,72.1,66.8,0.00,SW,225,0.0,0.0,84,0.00,,,0.00,WUHU216HW,2013-06-13 03:13:00,
2013-06-12 23:18:00,71.9,66.8,0.00,SW,225,0.0,0.0,84,0.00,,,0.00,WUHU216HW,2013-06-13 03:18:00,
2013-06-12 23:23:00,71.7,66.3,0.00,SW,225,0.0,0.0,83,0.00,,,0.00,WUHU216HW,2013-06-13 03:23:00,
2013-06-12 23:28:00,71.4,66.3,0.00,SW,225,0.0,0.0,84,0.00,,,0.00,WUHU216HW,2013-06-13 03:28:00,
2013-06-12 23:33:00,71.4,66.3,0.00,SW,225,0.0,0.0,84,0.00,,,0.00,WUHU216HW,2013-06-13 03:33:00,
2013-06-12 23:38:00,71.4,66.3,0.00,SW,225,0.0,0.0,84,0.00,,,0.00,WUHU216HW,2013-06-13 03:38:00,
2013-06-12 23:43:00,71.2,66.1,0.00,SW,225,0.0,0.0,84,0.00,,,0.00,WUHU216HW,2013-06-13 03:43:00,
2013-06-12 23:48:00,71.2,66.1,0.00,SW,225,0.0,0.0,84,0.00,,,0.00,WUHU216HW,2013-06-13 03:48:00,
2013-06-12 23:53:00,71.2,66.1,0.00,SW,225,0.0,0.0,84,0.00,,,0.00,WUHU216HW,2013-06-13 03:53:00,
2013-06-12 23:58:00,71.0,65.9,0.00,SW,225,0.0,0.0,84,0.00,,,0.00,WUHU216HW,2013-06-13 03:58:00,